Location: Pebble Beach Sunset Acres
(33.0837°N, 96.4508°W)
Time: 19:57:55
(UTC+00:00)

ISS - Visible Passes

Search period start: 04 December 2023 00:00
Search period end: 14 December 2023 00:00
Orbit: 415 x 417 km, 51.6° (Epoch: 04 December)

Date Brightness Start Highest point End Pass type
(mag) Time Alt. Az. Time Alt. Az. Time Alt. Az.
04 Dec -2.1 01:05:32 10° NW 01:07:15 27° NNW 01:07:15 27° NNW visible
05 Dec -3.0 00:17:13 10° NNW 00:20:18 33° NE 00:21:43 23° E visible
05 Dec -0.2 01:54:33 10° W 01:54:42 11° W 01:54:42 11° W visible
06 Dec -2.1 01:05:23 10° WNW 01:08:26 33° SW 01:09:39 24° S visible
07 Dec -3.5 00:16:39 10° NW 00:19:58 69° SW 00:23:17 10° SE visible
09 Dec -0.7 00:16:58 10° W 00:19:24 19° SW 00:21:50 10° S visible
